CW5306 Weather Reports


time (UTC)temp
F
wind
direction
speed
knots
gust
knots
rain 1hr
in
rain 24hr
in
rain mn
in
humidity
%
barometer
mb
20260903111416 78 94 9.6 21.7 0.00 0.51 0.00 82 1015.1
20260903110916 78 93 13.9 21.7 0.00 0.51 0.00 81 1015.2
20260903110415 78 77 8.7 20.0 0.00 0.51 0.00 82 1015.2
20260903105915 78 107 13.0 20.0 0.00 0.51 0.00 81 1015.3
20260903105647 78 139 10.4 20.0 0.00 0.51 0.00 81 1015.4
20260903104916 78 90 7.8 20.9 0.00 0.51 0.00 81 1015.3
20260903104416 77 119 11.3 20.9 0.00 0.51 0.00 81 1015.5
20260903103916 77 108 7.8 18.2 0.00 0.51 0.00 83 1015.3
20260903103416 77 122 7.0 18.2 0.00 0.51 0.00 84 1015.7
20260903103147 77 129 5.2 17.4 0.00 0.51 0.00 83 1015.5
20260903102415 77 106 7.0 14.8 0.00 0.51 0.00 83 1015.2
20260903101915 77 114 5.2 17.4 0.00 0.51 0.00 82 1015.6
20260903101416 78 111 8.7 20.9 0.00 0.51 0.00 82 1015.4
20260903100915 78 83 13.0 20.9 0.00 0.51 0.00 82 1015.7
20260903100416 78 106 5.2 18.2 0.00 0.51 0.00 82 1015.8
20260903100146 78 121 10.4 16.5 0.00 0.51 0.51 82 1015.7
20260903095415 78 108 4.3 20.9 0.00 0.51 0.51 81 1015.6
20260903094916 78 69 9.6 20.9 0.00 0.51 0.51 80 1015.5
20260903094416 78 62 7.8 17.4 0.00 0.51 0.51 79 1015.7
20260903093915 78 119 6.1 17.4 0.00 0.51 0.51 81 1015.5
20260903093647 78 93 6.1 20.0 0.00 0.51 0.51 81 1015.8
20260903092916 78 75 13.0 20.0 0.00 0.51 0.51 82 1015.9
20260903092415 78 86 7.8 17.4 0.00 0.51 0.51 81 1016.0
20260903091916 78 94 9.6 20.0 0.00 0.51 0.51 81 1015.7
20260903091646 78 109 10.4 25.2 0.00 0.51 0.51 81 1016.2
20260903090915 78 99 5.2 25.2 0.00 0.51 0.51 81 1016.1
20260903090416 78 112 7.0 20.9 0.00 0.51 0.51 80 1016.3
20260903085915 78 105 10.4 21.7 0.00 0.51 0.51 81 1016.4
20260903085415 78 111 10.4 21.7 0.00 0.51 0.51 81 1016.3
20260903084915 78 112 11.3 18.2 0.00 0.51 0.51 81 1016.4
20260903084415 78 108 7.0 21.7 0.00 0.51 0.51 80 1016.3
20260903083921 78 129 5.2 13.9 0.00 0.51 0.51 81 1016.1
20260903083915 78 61 10.4 21.7 0.00 0.51 0.51 80 1016.3
20260903082916 78 123 7.0 21.7 0.00 0.51 0.51 81 1016.3
20260903082418 78 84 8.7 18.2 0.00 0.51 0.51 80 1016.1
20260903081915 78 114 7.8 20.9 0.00 0.51 0.51 81 1016.1
20260903081416 78 70 12.2 17.4 0.00 0.51 0.51 81 1016.6
20260903080916 78 105 9.6 17.4 0.00 0.51 0.51 82 1016.2
20260903080415 78 71 7.8 17.4 0.00 0.51 0.51 81 1016.2
20260903075916 78 93 7.8 21.7 0.00 0.51 0.51 81 1016.1
20260903075416 78 69 7.8 21.7 0.00 0.51 0.51 82 1016.1
20260903074918 78 86 7.8 20.0 0.00 0.51 0.51 82 1016.1
20260903074415 78 108 3.5 20.0 0.00 0.51 0.51 82 1016.0
20260903074144 79 98 7.0 18.2 0.00 0.51 0.51 82 1016.2
20260903073411 79 115 10.4 18.2 0.00 0.51 0.51 81 1015.9
20260903072907 79 131 6.1 18.2 0.00 0.51 0.51 81 1016.2
20260903072407 79 103 7.8 20.0 0.00 0.51 0.51 81 1016.2
20260903071907 79 95 9.6 20.0 0.00 0.51 0.51 81 1016.1
20260903071405 79 105 10.4 22.6 0.00 0.51 0.51 81 1016.0
20260903070905 79 96 9.6 22.6 0.00 0.51 0.51 80 1015.9
20260903070632 79 80 9.6 16.5 0.00 0.51 0.51 79 1015.8
20260903065900 79 89 8.7 14.8 0.00 0.51 0.51 80 1015.9
20260903065400 79 80 9.6 18.2 0.00 0.51 0.51 79 1015.7
20260903064859 79 114 6.1 18.2 0.00 0.51 0.51 79 1015.8
20260903064356 79 65 7.8 17.4 0.00 0.51 0.51 80 1016.0
20260903063856 79 103 7.8 17.4 0.00 0.51 0.51 80 1015.8
20260903063354 79 82 9.6 20.0 0.00 0.51 0.51 79 1015.7
20260903062851 79 116 7.8 20.0 0.00 0.51 0.51 79 1015.8
20260903062352 79 100 9.6 17.4 0.00 0.51 0.51 79 1015.6
20260903061849 79 60 8.7 21.7 0.00 0.51 0.51 79 1015.4
20260903061619 79 111 6.1 21.7 0.00 0.51 0.51 79 1015.6
20260903060848 79 84 8.7 17.4 0.00 0.51 0.51 79 1015.4
20260903060618 79 69 9.6 18.2 0.00 0.51 0.51 79 1015.5
20260903055850 79 115 7.8 21.7 0.00 0.51 0.51 79 1015.3
20260903055623 79 140 8.7 13.9 0.00 0.51 0.51 79 1015.6
20260903055346 79 122 4.3 21.7 0.00 0.51 0.51 79 1015.3
20260903054615 79 130 8.7 17.4 0.00 0.51 0.51 79 1015.5
20260903053844 79 96 11.3 17.4 0.00 0.51 0.51 79 1015.3
20260903053344 79 96 6.1 16.5 0.00 0.51 0.51 79 1015.3
20260903052831 79 111 8.7 17.4 0.00 0.51 0.51 79 1015.1
20260903052331 79 88 12.2 18.2 0.00 0.51 0.51 79 1015.1
20260903052103 79 106 12.2 18.2 0.00 0.51 0.51 79 1014.9
20260903051331 79 122 7.8 14.8 0.00 0.51 0.51 80 1014.9
20260903050831 79 117 5.2 14.8 0.00 0.51 0.51 81 1014.7
20260903050336 79 82 2.6 16.5 0.00 0.51 0.51 80 1014.6
20260903050330 79 115 9.6 14.8 0.00 0.51 0.51 81 1014.6
20260903045331 79 84 7.8 16.5 0.00 0.51 0.51 80 1014.6
20260903044831 79 127 7.0 16.5 0.00 0.51 0.51 79 1014.4
20260903044331 80 51 5.2 16.5 0.00 0.51 0.51 79 1014.7
20260903043831 80 94 6.1 14.8 0.00 0.51 0.51 78 1014.6
20260903043331 80 111 6.1 14.8 0.00 0.51 0.51 78 1014.6
20260903042831 80 106 3.5 14.8 0.00 0.51 0.51 78 1014.4
20260903042331 80 87 7.8 14.8 0.00 0.51 0.51 77 1014.2
20260903042108 80 105 7.8 14.8 0.00 0.51 0.51 77 1014.5
20260903041831 80 143 7.8 14.8 0.00 0.51 0.51 77 1014.4
20260903040832 80 114 7.8 17.4 0.00 0.51 0.51 78 1014.4
20260903040331 80 115 3.5 20.0 0.00 0.51 0.51 77 1014.3
20260903035830 80 105 5.2 20.0 0.00 0.51 0.51 77 1014.6
20260903035330 81 117 9.6 16.5 0.00 0.51 0.51 77 1014.4
20260903034830 81 105 7.8 16.5 0.00 0.51 0.51 76 1014.3
20260903034330 81 129 9.6 17.4 0.00 0.51 0.51 75 1014.1
20260903033832 81 44 7.0 18.2 0.00 0.51 0.51 75 1014.2
20260903033549 81 80 9.6 18.2 0.00 0.51 0.51 75 1013.8
20260903032818 81 90 10.4 16.5 0.00 0.51 0.51 76 1014.0
20260903032318 81 65 8.7 16.5 0.00 0.51 0.51 76 1014.1
20260903031818 81 65 6.1 16.5 0.00 0.51 0.51 77 1013.9
20260903031319 82 93 9.6 17.4 0.00 0.51 0.51 76 1014.1
20260903030819 82 86 9.6 17.4 0.00 0.51 0.51 75 1014.1
20260903030319 82 124 5.2 14.8 0.00 0.51 0.51 75 1014.1
20260903025819 82 92 3.5 14.8 0.00 0.51 0.51 73 1014.0
20260903025318 82 102 7.0 14.8 0.00 0.51 0.51 74 1013.9
20260903024818 82 110 8.7 16.5 0.00 0.51 0.51 73 1013.8
20260903024318 82 87 8.7 17.4 0.00 0.51 0.51 73 1014.0
20260903023818 83 117 9.6 17.4 0.00 0.51 0.51 73 1014.2
20260903023319 82 104 3.5 13.9 0.00 0.51 0.51 75 1014.0
20260903022819 82 90 6.1 17.4 0.00 0.51 0.51 75 1014.2
20260903022318 82 75 11.3 17.4 0.00 0.51 0.51 76 1014.1
20260903022050 83 91 10.4 14.8 0.00 0.51 0.51 75 1014.0
20260903021319 82 83 3.5 14.8 0.00 0.51 0.51 76 1014.1
20260903020819 82 119 7.8 16.5 0.00 0.51 0.51 76 1013.7
20260903020318 83 106 7.0 18.2 0.00 0.51 0.51 75 1014.1
20260903015818 83 76 7.8 18.2 0.00 0.51 0.51 75 1013.9
20260903015318 83 92 7.8 14.8 0.00 0.51 0.51 74 1014.2
20260903014819 83 115 7.8 13.0 0.00 0.51 0.51 74 1014.0
20260903014319 83 111 5.2 13.9 0.00 0.51 0.51 74 1014.0
20260903013819 83 90 9.6 16.5 0.00 0.51 0.51 74 1014.2
20260903013319 83 102 5.2 16.5 0.00 0.51 0.51 74 1013.9
20260903012818 83 71 7.8 14.8 0.00 0.51 0.51 73 1014.0
20260903012319 83 104 10.4 13.9 0.00 0.51 0.51 74 1013.7
20260903011818 84 111 4.3 17.4 0.00 0.51 0.51 72 1013.9
20260903011318 84 110 5.2 17.4 0.00 0.51 0.51 73 1013.8
20260903010820 84 105 7.8 16.5 0.00 0.51 0.51 73 1014.1
20260903010319 84 90 7.8 14.8 0.00 0.51 0.51 74 1014.1
20260903005818 84 64 6.1 17.4 0.00 0.51 0.51 73 1014.0
20260903005319 84 113 13.0 17.4 0.00 0.51 0.51 73 1014.1
20260903004818 84 103 9.6 17.4 0.00 0.51 0.51 73 1014.1
20260903004319 84 67 9.6 17.4 0.00 0.51 0.51 74 1014.0
20260903004050 84 101 11.3 16.5 0.00 0.51 0.51 74 1013.9
20260903003318 84 102 4.3 17.4 0.00 0.51 0.51 75 1013.9
20260903003049 83 87 9.6 17.4 0.00 0.51 0.51 74 1014.1
20260903002321 84 75 5.2 18.2 0.00 0.51 0.51 75 1014.0
20260903001819 84 77 11.3 18.2 0.00 0.51 0.51 75 1014.3
20260903001319 84 51 6.1 16.5 0.00 0.51 0.51 76 1014.1
20260903001049 83 103 6.1 18.2 0.00 0.51 0.51 76 1014.2
20260903000318 83 70 8.7 18.2 0.00 0.51 0.51 77 1014.3
20260902235817 83 81 8.7 18.2 0.00 0.51 0.51 77 1014.4
20260902235319 83 51 7.8 18.2 0.00 0.51 0.51 76 1014.6
20260902234817 83 78 10.4 18.2 0.00 0.51 0.51 76 1014.5
20260902234317 84 72 5.2 16.5 0.00 0.51 0.51 77 1014.5
20260902233817 84 132 6.1 16.5 0.00 0.51 0.51 76 1014.5
20260902233317 84 108 8.7 18.2 0.00 0.51 0.51 77 1014.8
20260902232817 84 80 13.0 18.2 0.00 0.51 0.51 75 1014.7
20260902232548 84 73 5.2 20.0 0.00 0.51 0.51 75 1014.8
20260902231817 84 114 7.0 20.0 0.00 0.51 0.51 75 1014.7
20260902231317 84 84 8.7 17.4 0.00 0.51 0.51 76 1014.9
20260902230817 84 83 5.2 18.2 0.00 0.51 0.51 77 1015.0
20260902230317 84 64 11.3 18.2 0.00 0.51 0.51 75 1014.9
20260902225816 83 88 7.8 14.8 0.00 0.51 0.51 77 1014.9
20260902225316 83 106 9.6 14.8 0.00 0.51 0.51 76 1014.7
20260902224816 84 69 13.0 16.5 0.00 0.51 0.51 77 1014.8
20260902224316 83 93 12.2 16.5 0.00 0.51 0.51 76 1015.1
20260902223817 83 79 9.6 16.5 0.00 0.51 0.51 76 1015.2
20260902223316 83 139 10.4 16.5 0.00 0.51 0.51 77 1015.1
20260902222816 84 119 4.3 20.0 0.00 0.51 0.51 77 1015.3
20260902222317 84 100 7.0 20.0 0.00 0.51 0.51 78 1015.2
20260902221817 84 75 5.2 16.5 0.00 0.51 0.51 79 1015.2
20260902221317 84 94 8.7 18.2 0.00 0.51 0.51 77 1015.4
20260902220819 84 92 7.0 17.4 0.00 0.51 0.51 78 1015.1
20260902220305 84 114 5.2 17.4 0.00 0.51 0.51 79 1015.3
20260902215804 83 91 13.0 14.8 0.00 0.51 0.51 79 1015.5
20260902215306 83 110 10.4 14.8 0.00 0.51 0.51 80 1015.3
20260902214805 83 89 8.7 17.4 0.00 0.51 0.51 80 1015.4
20260902214305 83 50 10.4 17.4 0.00 0.51 0.51 80 1015.1
20260902213804 83 122 10.4 16.5 0.00 0.51 0.51 80 1015.3
20260902213535 83 88 10.4 13.9 0.00 0.51 0.51 81 1015.3
20260902212805 83 66 5.2 16.5 0.00 0.51 0.51 82 1015.2
20260902212253 82 102 5.2 16.5 0.00 0.51 0.51 82 1015.2
20260902212023 82 93 11.3 16.5 0.00 0.51 0.51 83 1015.2
20260902211254 81 140 9.6 13.9 0.00 0.51 0.51 84 1015.2
20260902211023 81 64 7.0 13.0 0.00 0.51 0.51 85 1015.2
20260902210253 80 72 7.0 16.5 0.00 0.51 0.51 85 1015.3
20260902205752 80 117 8.7 16.5 0.00 0.51 0.51 86 1015.5
20260902205252 80 107 7.8 16.5 0.00 0.51 0.51 86 1015.3
20260902204740 80 113 4.3 12.2 0.01 0.51 0.51 87 1015.4
20260902204500 80 106 7.0 12.2 0.01 0.51 0.51 87 1015.7
20260902203728 80 89 7.8 11.3 0.01 0.51 0.51 87 1015.5
20260902203235 79 107 7.0 12.2 0.01 0.51 0.51 88 1015.6
20260902203229 79 148 3.5 13.0 0.01 0.51 0.51 88 1015.5
20260902202500 79 102 6.1 12.2 0.01 0.51 0.51 88 1015.8
20260902201730 78 104 5.2 13.9 0.01 0.51 0.51 89 1015.6
20260902201229 78 93 3.5 14.8 0.01 0.51 0.51 89 1015.6
20260902200729 77 64 6.1 16.5 0.01 0.51 0.51 89 1015.6
20260902200229 77 109 9.6 25.2 0.01 0.51 0.51 88 1015.6
20260902195728 77 105 9.6 25.2 0.01 0.51 0.51 89 1015.7
20260902195229 77 63 9.6 20.9 0.00 0.51 0.50 89 1015.9
20260902194729 77 115 5.2 17.4 0.00 0.50 0.50 90 1015.7
20260902194229 78 69 7.8 13.9 0.00 0.50 0.50 91 1015.6
20260902193729 78 98 2.6 13.9 0.00 0.50 0.50 91 1015.8
20260902193228 77 100 3.5 16.5 0.01 0.50 0.50 91 1015.8
20260902193001 77 95 8.7 20.0 0.02 0.50 0.50 91 1015.6
20260902192229 77 115 8.7 20.0 0.03 0.50 0.50 92 1015.7
20260902191729 76 67 7.8 20.0 0.07 0.50 0.50 92 1015.8
20260902191228 76 35 8.7 16.5 0.11 0.50 0.50 92 1015.6
20260902190729 76 44 7.0 17.4 0.15 0.50 0.50 92 1015.6
20260902190228 76 58 9.6 18.2 0.19 0.50 0.50 92 1015.8
20260902185728 76 62 9.6 20.9 0.26 0.50 0.50 92 1015.6
20260902185229 75 114 7.0 20.9 0.35 0.50 0.50 92 1015.4
20260902184730 75 87 11.3 17.4 0.42 0.50 0.50 92 1015.5
20260902184229 75 90 12.2 18.2 0.43 0.50 0.50 93 1015.6
20260902183729 75 77 8.7 21.7 0.44 0.50 0.50 93 1015.8
20260902183229 75 73 9.6 24.3 0.44 0.50 0.49 93 1015.6
20260902182728 75 59 9.6 24.3 0.44 0.49 0.48 93 1015.5
20260902182228 76 50 12.2 18.2 0.42 0.47 0.48 93 1015.7
20260902181728 76 87 7.0 16.5 0.39 0.44 0.44 93 1015.5
20260902181229 76 70 4.3 16.5 0.34 0.39 0.39 92 1015.9
20260902180729 76 55 5.2 28.7 0.30 0.35 0.35 92 1015.5
20260902180231 76 135 7.0 28.7 0.26 0.31 0.31 92 1015.6
20260902175737 76 84 9.6 14.8 0.10 0.15 0.15 92 1015.4
20260902175730 76 116 6.1 17.4 0.20 0.25 0.24 92 1015.6
20260902175001 77 91 10.4 14.8 0.03 0.08 0.09 91 1015.3
20260902174229 77 75 2.6 13.9 0.02 0.07 0.07 91 1015.1
20260902173729 77 84 5.2 17.4 0.01 0.06 0.06 91 1015.2
20260902173500 77 113 6.1 17.4 0.00 0.06 0.05 91 1015.4
20260902173000 77 71 5.2 14.8 0.00 0.05 0.05 91 1015.2
20260902172501 77 77 11.3 16.5 0.00 0.05 0.05 91 1015.1
20260902171731 77 119 7.0 16.5 0.00 0.05 0.05 91 1015.3
20260902171229 77 85 4.3 20.9 0.00 0.05 0.05 91 1015.1
20260902171000 77 98 9.6 20.9 0.00 0.05 0.05 91 1014.8
20260902170228 77 103 7.8 16.5 0.00 0.05 0.05 91 1014.9
20260902165729 77 107 7.0 17.4 0.00 0.05 0.05 91 1015.0
20260902165229 77 78 7.8 17.4 0.00 0.05 0.05 91 1014.9
20260902164959 77 98 11.3 14.8 0.00 0.05 0.05 91 1014.9
20260902164229 77 110 9.6 16.5 0.00 0.05 0.05 91 1014.5
20260902163729 77 70 9.6 20.0 0.00 0.05 0.05 91 1014.7
20260902163500 77 87 5.2 20.0 0.01 0.05 0.05 91 1014.6
20260902162729 77 96 8.7 20.0 0.01 0.05 0.05 91 1014.6
20260902162228 77 57 8.7 20.9 0.02 0.05 0.05 91 1014.6
20260902161729 77 56 5.2 20.9 0.03 0.05 0.05 91 1014.5
20260902161230 76 76 9.6 18.2 0.03 0.05 0.05 92 1014.6
20260902161000 76 73 10.4 17.4 0.03 0.05 0.05 92 1014.5
20260902160459 76 58 8.7 14.8 0.03 0.05 0.05 92 1014.5
20260902160000 76 44 7.8 14.8 0.03 0.05 0.05 92 1014.3
20260902155229 76 77 4.3 17.4 0.03 0.05 0.05 92 1014.4
20260902154735 76 112 8.7 17.4 0.03 0.05 0.05 92 1014.5
20260902154729 76 113 7.0 17.4 0.03 0.05 0.05 92 1014.2
20260902153734 76 104 3.5 18.2 0.04 0.04 0.04 92 1014.3
20260902153728 76 72 8.7 18.2 0.03 0.05 0.05 92 1014.4
20260902152730 76 47 12.2 22.6 0.03 0.04 0.04 92 1014.0
20260902152230 76 99 9.6 22.6 0.02 0.02 0.02 91 1014.2
20260902152003 76 60 13.0 20.0 0.01 0.02 0.02 91 1014.0
20260902151229 76 77 7.0 16.5 0.01 0.02 0.02 91 1013.8
20260902150729 76 60 7.0 16.5 0.02 0.02 0.02 92 1013.9
20260902150500 76 77 9.6 13.9 0.02 0.02 0.02 92 1013.6
20260902145732 76 98 5.2 13.9 0.02 0.02 0.02 91 1014.0
20260902145500 76 81 8.7 20.9 0.02 0.02 0.02 91 1014.1
20260902144729 76 84 7.8 20.9 0.02 0.02 0.02 91 1014.0
20260902144459 76 55 9.6 20.9 0.02 0.02 0.02 91 1014.0
20260902144336 76 128 9.6 17.4 0.02 0.02 0.02 91 1013.8
20260902143500 76 113 3.5 17.4 0.00 0.01 0.00 91 1014.0
20260902142729 76 58 7.0 20.9 0.00 0.01 0.00 91 1014.0
20260902142240 76 133 7.8 17.4 0.00 0.01 0.00 90 1014.1
20260902142234 76 106 8.7 20.9 0.00 0.01 0.00 91 1014.1
20260902141818 76 133 7.8 17.4 0.00 0.01 0.00 90 1014.1
20260902141500 76 66 5.2 18.2 0.00 0.01 0.00 90 1013.9
20260902140732 76 62 7.0 24.3 0.00 0.00 0.00 89 1014.1
20260902140230 77 99 12.2 24.3 0.00 0.00 0.00 88 1014.1
20260902135729 77 58 9.6 20.9 0.00 0.00 0.00 88 1014.2
20260902135229 78 61 7.8 20.9 0.00 0.00 0.00 87 1014.3
20260902134729 78 101 6.1 16.5 0.00 0.00 0.00 87 1014.2
20260902134459 78 26 4.3 16.5 0.00 0.00 0.00 86 1014.0
20260902133959 78 128 9.6 20.0 0.00 0.00 0.00 87 1014.0
20260902133500 78 82 8.7 20.0 0.00 0.00 0.00 87 1014.0
20260902132729 78 46 11.3 17.4 0.00 0.00 0.00 87 1013.9
20260902132228 78 56 8.7 16.5 0.00 0.00 0.00 87 1014.0
20260902131948 78 58 7.0 16.5 0.00 0.00 0.00 87 1013.9
20260902131217 78 79 5.2 13.9 0.00 0.00 0.00 87 1014.0
20260902130717 78 83 4.3 13.9 0.00 0.00 0.00 87 1014.0
20260902130217 78 90 7.0 17.4 0.00 0.00 0.00 87 1014.1
20260902125948 78 73 10.4 17.4 0.00 0.00 0.00 87 1014.2
20260902125219 78 78 9.6 18.2 0.00 0.00 0.00 86 1014.1
20260902124718 78 73 3.5 18.2 0.00 0.00 0.00 86 1014.2
20260902124217 78 85 9.6 12.2 0.00 0.00 0.00 86 1014.3
20260902123705 78 30 3.5 14.8 0.00 0.00 0.00 86 1014.5
20260902123204 78 103 7.0 14.8 0.00 0.00 0.00 86 1014.4
20260902122705 78 97 9.6 14.8 0.00 0.00 0.00 87 1014.3
20260902122204 78 30 5.2 13.0 0.00 0.00 0.00 87 1014.4
20260902121704 78 47 6.1 13.9 0.00 0.00 0.00 87 1014.5
20260902121205 78 97 7.8 14.8 0.00 0.00 0.00 87 1014.7
20260902120936 78 79 7.8 17.4 0.00 0.00 0.00 87 1014.6
20260902120205 78 95 7.0 17.4 0.00 0.00 0.00 86 1014.5
20260902115705 78 73 7.0 18.2 0.00 0.00 0.00 87 1014.7
20260902115437 78 73 5.2 18.2 0.00 0.00 0.00 87 1014.5
20260902114937 78 69 11.3 16.5 0.00 0.00 0.00 87 1014.7
20260902114204 77 79 0.9 13.9 0.00 0.00 0.00 87 1014.7
20260902113704 77 89 9.6 13.9 0.00 0.00 0.00 88 1014.6
20260902113205 77 70 6.1 13.0 0.00 0.00 0.00 88 1014.9
20260902112704 77 84 7.8 14.8 0.00 0.00 0.00 88 1014.9
20260902112435 76 109 7.8 18.2 0.00 0.00 0.00 87 1014.7
20260902111704 77 119 11.3 18.2 0.00 0.00 0.00 87 1014.9